This is the latest recevied weather packets stored in our database for station/object W6TKD-13. If no packets are shown the sender has not sent any weather packets the latest 10 day(s).
| Time | Temp. | Humidity | Pressure | Rain* | Wind** | Luminosity | Snow |
|---|---|---|---|---|---|---|---|
| 1777835911 | 20° C | 51% | 1012.4 hPa | 0 mm | - | - | - |
| 1777835245 | 20° C | 51% | 1012.4 hPa | 0 mm | - | - | - |
| 1777834577 | 20° C | 51% | 1012.4 hPa | 0 mm | - | - | - |
| 1777833910 | 20° C | 50% | 1012.5 hPa | 0 mm | - | - | - |
| 1777833243 | 20.56° C | 49% | 1012.5 hPa | 0 mm | - | - | - |
| 1777832577 | 21.67° C | 49% | 1012.4 hPa | 0 mm | - | - | - |
| 1777831910 | 22.22° C | 49% | 1012.3 hPa | 0 mm | - | - | - |
| 1777831242 | 22.78° C | 50% | 1012.3 hPa | 0 mm | - | - | - |
| 1777830575 | 22.22° C | 51% | 1012.4 hPa | 0 mm | - | - | - |
| 1777829909 | 21.11° C | 54% | 1012.4 hPa | 0 mm | - | - | - |
| 1777829241 | 18.33° C | 54% | 1012.4 hPa | 0 mm | - | - | - |
| 1777828574 | 18.33° C | 54% | 1012.3 hPa | 0 mm | - | - | - |
| 1777827907 | 17.22° C | 56% | 1012.3 hPa | 0 mm | - | - | - |
| 1777826574 | 14.44° C | 55% | 1012 hPa | 0 mm | - | - | - |
| 1777825907 | 15° C | 56% | 1012.4 hPa | 0 mm | - | - | - |
| 1777823905 | 12.78° C | 57% | 1012.4 hPa | 0 mm | - | - | - |
| 1777823240 | 12.78° C | 57% | 1012.1 hPa | 0 mm | - | - | - |
| 1777822571 | 12.78° C | 57% | 1012.1 hPa | 0 mm | - | - | - |
| 1777821904 | 12.78° C | 57% | 1012.1 hPa | 0 mm | - | - | - |
| 1777821238 | 12.22° C | 57% | 1011.7 hPa | 0 mm | - | - | - |
| 1777820571 | 12.22° C | 58% | 1011.7 hPa | 0 mm | - | - | - |
| 1777819904 | 11.67° C | 58% | 1011.6 hPa | 0 mm | - | - | - |
| 1777819236 | 11.11° C | 58% | 1011.5 hPa | 0 mm | - | - | - |
| 1777818569 | 10.56° C | 57% | 1011.3 hPa | 0 mm | - | - | - |
| 1777817902 | 10.56° C | 57% | 1011.2 hPa | 0 mm | - | - | - |
* Rain since midnight (hover to see other rain measurements)
** Current wind speed in m/s (hover to see current wind gust speed)